[[{"header":{"parameterUnit":"m.s-1","parameterCategory":1,"la1":30.2992,"la2":30.254,"lo1":-89.0895,"lo2":-89.0443,"dy":0.0025,"dx":0.0025,"nx":19,"ny":19,"refTime":"2026-04-23T03:00:00:Z","depth":0,"parameterNumber":2,"parameterNumberName":"U-component_of_WINDS"},"data":[0,0,0,-1.5505,-1.5508,-1.5616,-1.5616,-1.5748,-1.5749,0,0,0,0,0,0,0,0,0,0,0,-1.5467,-1.5468,-1.5505,-1.5508,-1.5616,-1.5616,-1.5748,-1.5749,0,0,0,0,0,0,0,0,0,0,0,-1.5467,-1.5468,-1.5468,-1.5508,-1.5616,-1.5616,-1.5747,-1.5669,0,0,0,0,0,0,0,0,0,0,-1.5565,-1.5523,-1.5467,-1.5468,-1.5509,-1.5616,-1.5617,-1.5665,-1.5674,-1.5695,0,-1.5711,0,-1.5732,-1.5757,-1.5758,0,0,0,-1.5513,-1.5516,-1.555,-1.5468,-1.551,-1.5615,-1.5569,-1.567,-1.568,-1.5706,-1.5713,-1.5718,-1.5734,-1.5758,-1.5759,-1.5861,-1.5861,0,0,-1.5507,-1.5484,-1.5544,-1.5556,-1.5537,-1.5565,-1.5572,-1.5676,-1.5682,-1.5713,-1.5721,-1.5736,-1.5759,-1.576,-1.5861,-1.5861,0,0,0,-1.5486,-1.5479,-1.5512,-1.5551,-1.557,-1.5568,-1.5576,-1.5677,-1.569,-1.5723,-1.5738,-1.5759,-1.5761,-1.5861,-1.5861,-1.5849,0,0,0,-1.5483,-1.5467,-1.5509,-1.5495,-1.5568,-1.5625,-1.5575,-1.5683,-1.5695,-1.5737,-1.5759,-1.5762,-1.586,-1.5861,-1.5848,-1.5847,0,0,0,-1.5462,-1.5465,-1.5478,-1.5494,-1.5539,-1.5624,-1.5642,-1.5686,-1.5704,-1.5758,-1.5762,-1.586,-1.5861,-1.5848,-1.5847,-1.5867,0,0,0,-1.5434,-1.5466,-1.5477,-1.552,-1.5538,-1.5615,-1.5642,-1.5701,-1.5745,-1.576,-1.586,-1.5861,-1.5848,-1.5847,-1.5866,-1.5879,-1.5882,0,0,-1.5462,-1.5469,-1.5496,-1.5509,-1.5577,-1.56,-1.5668,-1.5732,-1.5759,-1.5826,-1.5829,-1.5848,-1.5847,-1.5867,-1.5908,-1.591,0,0,0,-1.5497,-1.5516,-1.5539,-1.558,-1.5628,-1.567,-1.5726,-1.575,-1.5808,-1.5788,-1.5862,-1.5862,-1.5875,-1.5882,-1.5884,-1.5896,-1.5863,-1.5863,-1.5863,-1.5503,-1.5536,-1.5583,-1.5628,-1.5668,-1.5725,-1.576,-1.5803,-1.5825,-1.5842,-1.5862,-1.5882,-1.589,-1.5891,-1.5904,-1.5871,-1.5871,-1.5871,-1.5871,-1.5548,-1.558,-1.5608,-1.5663,-1.5698,-1.5747,-1.5804,-1.5818,-1.5869,-1.587,-1.5883,-1.5881,-1.5892,-1.5905,-1.5871,-1.5871,-1.5871,-1.5871,-1.5871,-1.5555,-1.5576,-1.5604,-1.5666,-1.571,-1.5757,-1.5804,-1.5834,-1.5864,-1.5877,-1.5901,-1.5902,-1.5906,-1.5886,-1.5886,-1.5886,-1.5887,-1.5887,-1.5887,-1.5551,-1.5583,-1.5618,-1.5672,-1.5702,-1.5746,-1.5805,-1.5837,-1.588,-1.5898,-1.5899,-1.592,-1.5887,-1.5878,-1.5888,-1.5888,-1.5887,-1.5887,-1.5887,-1.5584,-1.5581,-1.5635,-1.5665,-1.5732,-1.5775,-1.5813,-1.5875,-1.5906,-1.5928,-1.5947,-1.5918,-1.5928,-1.5927,-1.5919,-1.5939,-1.5939,-1.5939,-1.5939,-1.559,-1.5598,-1.5659,-1.5706,-1.5755,-1.5795,-1.5857,-1.5903,-1.5952,-1.5973,-1.5975,-1.5968,-1.5966,-1.5977,-1.5975,-1.5969,-1.6001,-1.6001,-1.6001,-1.5612,-1.5626,-1.5671,-1.5716,-1.5771,-1.5818,-1.5877,-1.5931,-1.5985,-1.6004,-1.5991,-1.5988,-1.5978,-1.5972,-1.5989,-1.5985,-1.5974,0,0]},{"header":{"parameterUnit":"m.s-1","parameterCategory":1,"la1":30.2992,"la2":30.254,"lo1":-89.0895,"lo2":-89.0443,"dy":0.0025,"dx":0.0025,"nx":19,"ny":19,"refTime":"2026-04-23T03:00:00:Z","depth":0,"parameterNumber":3,"parameterNumberName":"V-component_of_WINDS"},"data":[0,0,0,6.2116,6.2117,6.2158,6.2158,6.223,6.2231,0,0,0,0,0,0,0,0,0,0,0,6.2118,6.2119,6.2116,6.2118,6.2158,6.2158,6.223,6.2231,0,0,0,0,0,0,0,0,0,0,0,6.2117,6.2119,6.212,6.2118,6.2158,6.2158,6.223,6.2192,0,0,0,0,0,0,0,0,0,0,6.2149,6.2164,6.2118,6.212,6.2118,6.2158,6.2158,6.219,6.2194,6.2221,0,6.225,0,6.2242,6.2237,6.2238,0,0,0,6.2107,6.216,6.2159,6.212,6.2119,6.2158,6.2137,6.2192,6.2197,6.2227,6.225,6.2252,6.2243,6.2238,6.2238,6.243,6.2432,0,0,6.2105,6.2132,6.2156,6.2163,6.2159,6.2135,6.2138,6.2195,6.2221,6.2251,6.2254,6.2244,6.2239,6.2239,6.2429,6.2431,0,0,0,6.2106,6.2131,6.2128,6.2161,6.2166,6.2137,6.214,6.2219,6.2215,6.2254,6.2245,6.2239,6.224,6.2427,6.243,6.2524,0,0,0,6.2104,6.2131,6.2127,6.2145,6.2166,6.2193,6.2163,6.2212,6.2217,6.2245,6.2239,6.2241,6.2426,6.2429,6.2518,6.2564,0,0,0,6.2111,6.2132,6.2143,6.2146,6.2164,6.2192,6.2191,6.2212,6.2212,6.2238,6.2241,6.2425,6.2428,6.2513,6.2556,6.2623,0,0,0,6.2125,6.2226,6.2145,6.2253,6.2164,6.2251,6.2191,6.2253,6.2287,6.224,6.2426,6.2429,6.2511,6.255,6.2617,6.2684,6.2715,0,0,6.2268,6.2244,6.2306,6.2234,6.2342,6.2242,6.2363,6.2368,6.2345,6.2403,6.2407,6.252,6.2555,6.2622,6.2876,6.2901,0,0,0,6.236,6.2405,6.2427,6.2461,6.2467,6.2476,6.2459,6.2461,6.2509,6.2381,6.2562,6.2582,6.262,6.265,6.2671,6.2702,6.2445,6.2444,6.2444,6.26,6.2566,6.2666,6.2636,6.267,6.2651,6.2675,6.2673,6.2629,6.2673,6.2689,6.2848,6.2885,6.29,6.2933,6.2722,6.2722,6.2723,6.2723,6.2805,6.2863,6.2801,6.2876,6.2839,6.2901,6.2887,6.2853,6.2905,6.2833,6.2864,6.2788,6.2928,6.2955,6.273,6.2729,6.2728,6.2727,6.2727,6.2958,6.298,6.2981,6.3025,6.3063,6.303,6.3082,6.3047,6.3013,6.3045,6.3058,6.3057,6.305,6.3054,6.3054,6.3055,6.3055,6.3056,6.3056,6.3117,6.3115,6.3164,6.3179,6.3196,6.3213,6.3195,6.321,6.3218,6.3187,6.3187,6.3138,6.2949,6.2902,6.3064,6.3063,6.3062,6.3061,6.306,6.3337,6.3282,6.3358,6.3375,6.3389,6.3429,6.3383,6.3416,6.3423,6.3451,6.3395,6.3261,6.3234,6.3217,6.3178,6.3402,6.3402,6.3402,6.3402,6.3467,6.345,6.3519,6.3548,6.3572,6.3538,6.3624,6.3611,6.3589,6.3592,6.3554,6.3499,6.3483,6.3466,6.3444,6.3406,6.3684,6.3684,6.3684,6.36,6.3584,6.3664,6.3642,6.3651,6.3659,6.3739,6.3774,6.3737,6.3695,6.3592,6.3581,6.3491,6.3464,6.342,6.3386,6.3317,0,0]}]]